Back to catalog

STARLINK-35860

AliveCommunicationsVLEO
NORAD 66881·PAYLOAD·🇺🇸 United States

Launched Dec 4, 2025 from Vandenberg Space Force Base

Loading…

Next Passes (next 24 hours)

TLE

FreshSource: CelesTrak SupGP

Epoch: Sep 14, 2026, 15:45 UTC

1 66881C 25283D   26257.65673611  .00000930  00000+0  27483-4 0  2572
2 66881  53.1572 224.7403 0001411  88.7076 131.2527 15.34375813    11

Track STARLINK-35860 in real time with AllMySat

Download on the App Store